When you browse on this site, cookies collect data to enhance your experience and personalize the content and advertising you see.
Visit our Privacy Policy to learn more. By continuing to use the site, you agree to this use of cookies and data.
  • In Österreich
  • Länderverzeichnis
  • Für 7 Tage
  • Wassertemperatur
  • Satellitenkarten
  • Wetterkarte
  • News
  • Widgets
  • user-avatar
    Anmelden

    Stündliche Wetter Rabka-Zdrój

    Heute, 17 Februar, Sonntag

    Zeit Temperatur Niederschläge Wind Luftdruck Luftfeuchtigkeit
    00:00 +2°C° 0 mm 1 m/S 714 mmHg 83%
    01:00 +1°C° 0 mm 1 m/S 714 mmHg 82%
    02:00 0°C° 0 mm 0 m/S 714 mmHg 80%
    03:00 0°C° 0 mm 0 m/S 714 mmHg 78%
    04:00 0°C° 0 mm 0 m/S 713 mmHg 77%
    05:00 0°C° 0 mm 0 m/S 713 mmHg 74%
    06:00 0°C° 0 mm 0 m/S 714 mmHg 72%
    07:00 0°C° 0 mm 0 m/S 714 mmHg 69%
    08:00 +2°C° 0 mm 0 m/S 714 mmHg 65%
    09:00 +5°C° 0 mm 0 m/S 714 mmHg 60%
    10:00 +7°C° 0 mm 0 m/S 715 mmHg 56%
    11:00 +9°C° 0 mm 1 m/S 714 mmHg 56%
    12:00 +9°C° 0 mm 1 m/S 714 mmHg 56%
    13:00 +10°C° 0 mm 1 m/S 714 mmHg 56%
    14:00 +9°C° 0 mm 1 m/S 714 mmHg 63%
    15:00 +8°C° 0 mm 1 m/S 713 mmHg 69%
    16:00 +7°C° 0 mm 1 m/S 713 mmHg 76%
    17:00 +5°C° 0 mm 0 m/S 713 mmHg 77%
    18:00 +3°C° 0 mm 0 m/S 713 mmHg 79%
    19:00 +2°C° 0 mm 0 m/S 712 mmHg 81%
    20:00 +1°C° 0 mm 0 m/S 712 mmHg 80%
    21:00 +1°C° 0 mm 0 m/S 712 mmHg 79%
    22:00 +1°C° 0 mm 0 m/S 712 mmHg 78%
    23:00 +1°C° 0 mm 0 m/S 712 mmHg 77%

    Morgen, 18 Februar, Montag

    Zeit Temperatur Niederschläge Wind Luftdruck Luftfeuchtigkeit
    00:00 +2°C° 0 mm 1 m/S 712 mmHg 76%
    01:00 +2°C° 0 mm 1 m/S 712 mmHg 75%
    02:00 +2°C° 0 mm 1 m/S 712 mmHg 74%
    03:00 +1°C° 0 mm 0 m/S 712 mmHg 73%
    04:00 0°C° 0 mm 0 m/S 711 mmHg 73%
    05:00 0°C° 0 mm 0 m/S 711 mmHg 72%
    06:00 +1°C° 0 mm 1 m/S 711 mmHg 71%
    07:00 +1°C° 0 mm 1 m/S 711 mmHg 70%
    08:00 +3°C° 0 mm 1 m/S 712 mmHg 65%
    09:00 +5°C° 0 mm 1 m/S 712 mmHg 61%
    10:00 +7°C° 0 mm 1 m/S 712 mmHg 56%
    11:00 +8°C° 0 mm 1 m/S 712 mmHg 56%
    12:00 +9°C° 0 mm 1 m/S 712 mmHg 56%
    13:00 +10°C° 0 mm 1 m/S 712 mmHg 56%
    14:00 +9°C° 0 mm 1 m/S 712 mmHg 63%
    15:00 +8°C° 0 mm 1 m/S 711 mmHg 69%
    16:00 +7°C° 0 mm 1 m/S 711 mmHg 75%
    17:00 +6°C° 0 mm 1 m/S 710 mmHg 78%
    18:00 +4°C° 0 mm 1 m/S 710 mmHg 81%
    19:00 +3°C° 0 mm 1 m/S 710 mmHg 85%
    20:00 +2°C° 0 mm 1 m/S 710 mmHg 84%
    21:00 +2°C° 0 mm 1 m/S 710 mmHg 84%
    22:00 +2°C° 0 mm 1 m/S 710 mmHg 84%
    23:00 +2°C° 0 mm 1 m/S 710 mmHg 84%

    übermorgen, 19 Februar, Dienstag

    Zeit Temperatur Niederschläge Wind Luftdruck Luftfeuchtigkeit
    00:00 +2°C° 0 mm 1 m/S 710 mmHg 84%
    01:00 +2°C° 0 mm 1 m/S 710 mmHg 84%
    02:00 +1°C° 0 mm 1 m/S 710 mmHg 84%
    03:00 +1°C° 0 mm 1 m/S 710 mmHg 84%
    04:00 +1°C° 0 mm 1 m/S 709 mmHg 83%
    05:00 +1°C° 0 mm 1 m/S 709 mmHg 83%
    06:00 +1°C° 0 mm 1 m/S 709 mmHg 83%
    07:00 +1°C° 0 mm 1 m/S 709 mmHg 83%
    08:00 +3°C° 0 mm 1 m/S 710 mmHg 77%
    09:00 +5°C° 0 mm 1 m/S 710 mmHg 71%
    10:00 +6°C° 0 mm 2 m/S 710 mmHg 65%
    11:00 +7°C° 0 mm 2 m/S 710 mmHg 64%
    12:00 +7°C° 0 mm 2 m/S 710 mmHg 63%
    13:00 +8°C° 0 mm 2 m/S 710 mmHg 62%
    14:00 +7°C° 0 mm 2 m/S 709 mmHg 67%
    15:00 +6°C° 0 mm 2 m/S 709 mmHg 73%
    16:00 +6°C° 0 mm 1 m/S 709 mmHg 79%
    17:00 +5°C° 0 mm 1 m/S 708 mmHg 83%
    18:00 +3°C° 0 mm 1 m/S 708 mmHg 87%
    19:00 +2°C° 0 mm 1 m/S 708 mmHg 91%
    20:00 +2°C° 0 mm 1 m/S 708 mmHg 92%
    21:00 +2°C° 0 mm 1 m/S 709 mmHg 92%
    22:00 0°C° 0 mm 0 m/S 709 mmHg 92%
    23:00 0°C° 0 mm 0 m/S 709 mmHg 92%

    20 Februar, Mittwoch

    Zeit Temperatur Niederschläge Wind Luftdruck Luftfeuchtigkeit
    00:00 0°C° 0 mm 0 m/S 709 mmHg 91%
    01:00 +1°C° 0 mm 1 m/S 709 mmHg 90%
    02:00 +1°C° 0 mm 1 m/S 709 mmHg 90%
    03:00 +1°C° 0 mm 0 m/S 709 mmHg 90%
    04:00 +1°C° 0 mm 0 m/S 709 mmHg 91%
    05:00 +2°C° 0 mm 1 m/S 710 mmHg 92%
    06:00 +1°C° 0 mm 1 m/S 710 mmHg 94%
    07:00 +1°C° 0 mm 1 m/S 710 mmHg 95%
    08:00 +3°C° 0 mm 1 m/S 711 mmHg 90%
    09:00 +4°C° 0 mm 1 m/S 711 mmHg 84%
    10:00 +6°C° 0 mm 1 m/S 712 mmHg 79%
    11:00 +6°C° 0 mm 1 m/S 712 mmHg 76%
    12:00 +6°C° 0 mm 2 m/S 712 mmHg 72%
    13:00 +7°C° 0 mm 2 m/S 712 mmHg 68%
    14:00 +6°C° 0 mm 2 m/S 712 mmHg 72%
    15:00 +5°C° 0 mm 2 m/S 711 mmHg 76%
    16:00 +6°C° 0 mm 1 m/S 711 mmHg 80%
    17:00 +4°C° 0 mm 1 m/S 711 mmHg 84%
    18:00 +3°C° 0 mm 1 m/S 711 mmHg 88%
    19:00 +2°C° 0 mm 1 m/S 711 mmHg 92%
    20:00 +2°C° 0 mm 1 m/S 712 mmHg 93%
    21:00 +1°C° 0 mm 1 m/S 712 mmHg 93%
    22:00 0°C° 0 mm 0 m/S 712 mmHg 93%
    23:00 0°C° 0 mm 0 m/S 712 mmHg 93%

    21 Februar, Donnerstag

    Zeit Temperatur Niederschläge Wind Luftdruck Luftfeuchtigkeit
    00:00 0°C° 0 mm 0 m/S 712 mmHg 93%
    01:00 0°C° 0 mm 0 m/S 712 mmHg 93%
    02:00 0°C° 0 mm 0 m/S 712 mmHg 92%
    03:00 0°C° 0 mm 0 m/S 712 mmHg 92%
    04:00 0°C° 0 mm 0 m/S 712 mmHg 91%
    05:00 0°C° 0 mm 0 m/S 712 mmHg 90%
    06:00 0°C° 0 mm 0 m/S 712 mmHg 90%
    07:00 0°C° 0 mm 0 m/S 712 mmHg 89%
    08:00 +2°C° 0 mm 1 m/S 712 mmHg 83%
    09:00 +4°C° 0 mm 1 m/S 712 mmHg 77%
    10:00 +5°C° 0 mm 1 m/S 713 mmHg 71%
    11:00 +6°C° 0 mm 1 m/S 712 mmHg 69%
    12:00 +7°C° 0 mm 1 m/S 712 mmHg 68%
    13:00 +6°C° 0 mm 2 m/S 712 mmHg 66%
    14:00 +7°C° 0 mm 1 m/S 712 mmHg 71%
    15:00 +6°C° 0 mm 1 m/S 711 mmHg 77%
    16:00 +6°C° 0 mm 1 m/S 711 mmHg 83%
    17:00 +5°C° 0.2 mm 1 m/S 711 mmHg 87%
    18:00 +4°C° 0.2 mm 1 m/S 711 mmHg 91%
    19:00 +4°C° 0.2 mm 1 m/S 711 mmHg 95%
    20:00 +4°C° 0.3 mm 1 m/S 711 mmHg 96%
    21:00 +4°C° 0.3 mm 1 m/S 711 mmHg 97%
    22:00 +4°C° 0.3 mm 1 m/S 711 mmHg 98%
    23:00 +3°C° 0.2 mm 1 m/S 711 mmHg 98%

    22 Februar, Freitag

    Zeit Temperatur Niederschläge Wind Luftdruck Luftfeuchtigkeit
    00:00 +3°C° 0.2 mm 1 m/S 710 mmHg 98%
    01:00 +3°C° 0.2 mm 1 m/S 710 mmHg 98%
    02:00 +3°C° 0.1 mm 1 m/S 710 mmHg 98%
    03:00 +3°C° 0.1 mm 1 m/S 710 mmHg 98%
    04:00 +3°C° 0.1 mm 1 m/S 710 mmHg 98%
    05:00 +3°C° 0.2 mm 1 m/S 710 mmHg 98%
    06:00 +3°C° 0.2 mm 1 m/S 710 mmHg 98%
    07:00 +3°C° 0.2 mm 1 m/S 710 mmHg 98%
    08:00 +3°C° 0.7 mm 1 m/S 709 mmHg 97%
    09:00 +4°C° 0.7 mm 1 m/S 709 mmHg 96%
    10:00 +3°C° 0.7 mm 2 m/S 709 mmHg 95%
    11:00 +3°C° 0.3 mm 2 m/S 709 mmHg 93%
    12:00 +2°C° 0.3 mm 3 m/S 710 mmHg 90%
    13:00 +3°C° 0.3 mm 3 m/S 710 mmHg 88%
    14:00 +2°C° 0.2 mm 3 m/S 710 mmHg 88%
    15:00 +2°C° 0.2 mm 3 m/S 710 mmHg 88%
    16:00 +1°C° 0.2 mm 4 m/S 711 mmHg 88%
    17:00 0°C° 0.1 mm 4 m/S 712 mmHg 86%
    18:00 -1°C° 0.1 mm 4 m/S 712 mmHg 85%
    19:00 -2°C° 0.1 mm 5 m/S 713 mmHg 83%
    20:00 -4°C° 0 mm 5 m/S 714 mmHg 81%
    21:00 -5°C° 0 mm 4 m/S 715 mmHg 80%
    22:00 -7°C° 0 mm 4 m/S 716 mmHg 78%
    23:00 -8°C° 0 mm 4 m/S 716 mmHg 77%
    Mehr zeigen